Regional Weather Roundup
Issued by NWS

Home | Current Version | Previous Version | Graphics & Text | Print | Product List | Glossary On
Versions: 1 2 3 4 5 6 7 8 9 10 11 12 13 14 15 16 17 18 19 20 21 22 23 24 25 26 27 28 29 30 31 32 33 34 35 36 37 38 39 40 41 42 43 44 45 46 47 48 49 50
120
ASUS43 KLOT 080703
RWRIL

ILLINOIS REGIONAL WEATHER ROUNDUP
NATIONAL WEATHER SERVICE CHICAGO/ROMEOVILLE IL
100 AM CST THU DEC 08 2016

NOTE: "FAIR" INDICATES FEW OR NO CLOUDS BELOW 12,000 FEET WITH NO
SIGNIFICANT WEATHER AND/OR OBSTRUCTIONS TO VISIBILITY.

* THESE STATIONS ARE NOT UNDER NWS QUALITY CONTROL. THEY ALSO MAY NOT
  REPORT WEATHER SUCH AS PRECIPITATION OR FOG.

ILZ001-002-007-009-015-016-024-080800-
NORTHWEST ILLINOIS

CITY           SKY/WX    TMP DP  RH WIND       PRES   REMARKS
MOLINE         CLOUDY    21  11  65 W16       30.26R WCI   7
$$

ILZ003-004-008-010-011-017-018-080800-
NORTH CENTRAL ILLINOIS

CITY           SKY/WX    TMP DP  RH WIND       PRES   REMARKS
ROCKFORD       FLURRIES  23  14  68 W20       30.16F WCI   8
$$

ILZ005-006-012>014-019>023-080800-
NORTHEAST ILLINOIS

CITY           SKY/WX    TMP DP  RH WIND       PRES   REMARKS
CHICAGO-OHARE  FLURRIES  24  14  65 W21G35    30.14S WCI   9
CHICAGO-MIDWAY FLURRIES  25  13  60 W17G26    30.16S WCI  12
AURORA         FLURRIES  24  16  71 W20       30.17R WCI  10
WAUKEGAN       NOT AVBL
DUPAGE AIRPORT CLOUDY    23  13  65 W21G30    30.15R WCI   8
WHEELING       CLOUDY    24  13  62 W14       30.15S WCI  12
NORTHERLY ISL    N/A     25  15  66 W15         N/A  WCI  13
$$

LMZ740>746-080800-
SOUTHERN LAKE MICHIGAN

STATION/POSITION SKY/WX   TEMP    WIND        PRES    VSBY  WAVE
                          AIR SEA DIR/SP/G                  HT/PER
                          (F)     (DEG/KT/KT) (MB)    (MI)  (FT/S)
HARRISON CRIB              25     280/ 23/ 27   N/A
BURNHAM HARBOR             25     260/  9/ 18   N/A
CALUMET HARBOR             24     250/  8/ 17 1020.5F
BURNS HARBOR               26     270/ 22/ 29 1021.3
MICHIGAN CITY              26     230/ 29/ 31   N/A
$$

ILZ025>027-034>036-040-047-049-050-058-095>099-080800-
WEST-CENTRAL ILLINOIS

CITY           SKY/WX    TMP DP  RH WIND       PRES   REMARKS
QUINCY         CLEAR     21  11  65 W16G23    30.35S WCI   7
$$

ILZ028>032-037-038-041>044-048-051>054-059>061-080800-
CENTRAL ILLINOIS

CITY           SKY/WX    TMP DP  RH WIND       PRES   REMARKS
DECATUR        CLEAR     23  13  65 W12G21    30.29S WCI  12
PEORIA         CLEAR     21  12  68 W12G23    30.29S WCI   9
SPRINGFIELD    CLEAR     24  13  62 W15G21    30.32S WCI  11
TAYLORVILLE    NOT AVBL
$$

ILZ033-039-045-046-055>057-062-063-080800-
EAST-CENTRAL ILLINOIS

CITY           SKY/WX    TMP DP  RH WIND       PRES   REMARKS
CHAMPAIGN      CLEAR     23  14  68 W18       30.26R WCI   9
MATTOON        MOCLDY    26  17  68 W14       30.27R WCI  14
$$

ILZ079-100>102-080800-
SOUTHWEST ILLINOIS

CITY           SKY/WX    TMP DP  RH WIND       PRES   REMARKS
BELLEVILLE     PTCLDY    27  17  64 NW16      30.35R WCI  15
CAHOKIA*       CLEAR     28  13  53 NW18      30.38R WCI  15
$$

ILZ064>066-069>071-074>076-080>082-084>086-088>090-092>094-080800-
SOUTH-CENTRAL ILLINOIS

CITY           SKY/WX    TMP DP  RH WIND       PRES   REMARKS
CARBONDALE     MOCLDY    31  21  66 N9        30.34R WCI  23
$$

ILZ067-068-072-073-078-083-087-091-080800-
SOUTHEAST ILLINOIS

CITY           SKY/WX    TMP DP  RH WIND       PRES   REMARKS
LAWRENCEVILLE  CLOUDY    31  18  58 NW16      30.29R WCI  20
$$

ABBREVIATIONS USED IN REMARKS
   TC - TEMPERATURE IN CELSIUS
  WCI - WIND CHILL INDEX
   HX - HEAT INDEX
  VSB - VISIBILITY
$$





USA.gov is the U.S. government's official web portal to all federal, state and local government web resources and services.